[Date Prev][Date Next][Thread Prev][Thread Next] - [Date Index][Thread Index][Author Index]
2 Line ISS Keps 1-15
- Subject: [sarex] 2 Line ISS Keps 1-15
- From: "Dave Larsen PhD" <doc@xxxxxxxxxxx>
- Date: Tue, 15 Jan 2002 03:40:14 -0800
ISS
1 25544U 98067A 02015.24538259 .00061153 00000-0 82579-3 0 9592
2 25544 51.6402 101.6262 0006866 307.3891 100.6611 15.57155060180172
----
Via the sarex mailing list at AMSAT.ORG courtesy of AMSAT-NA.
To unsubscribe, send "unsubscribe sarex" to Majordomo@amsat.org
AMSAT Home